Weather History for KRNT - August, 2013

Change the Weather History Date:

Saturday, August 17, 2013

  Actual Average Record
Temperature  
Mean Temperature 71 °F -  
Max Temperature 79 °F 75 °F 91 °F (2012)
Min Temperature 64 °F 56 °F 51 °F (2011)
Cooling Degree Days 6    
Growing Degree Days 21 (Base 50)    
Moisture  
Dew Point 56 °F    
Average Humidity 61    
Maximum Humidity 75    
Minimum Humidity 48    
Precipitation  
Precipitation 0.00 in - - ()
Sea Level Pressure  
Sea Level Pressure 30.06 in    
Wind  
Wind Speed 4 mph (South)    
Max Wind Speed 8 mph    
Max Gust Speed 16 mph    
Visibility 10 miles    
Events      
Averages and records for this station are not official NWS values.
T = Trace of Precipitation, MM = Missing Value Source: NWS Daily Summary

Daily Weather History Graph

Daily Weather History Graph

Search for Another Location

Airport or City:

Trip Planner

Search our weather history database for the weather conditions in past years. The results will help you decide how hot, cold, wet, or windy it might be!

Date:

Astronomy

Aug. 17, 2013 Rise Set
Actual Time 6:08 AM PDT 8:16 PM PDT
Civil Twilight 5:34 AM PDT 8:50 PM PDT
Nautical Twilight 4:52 AM PDT 9:31 PM PDT
Astronomical Twilight 4:06 AM PDT 10:17 PM PDT
Moon 5:43 PM PDT (8/17) 2:08 AM PDT (8/17)
Length of Visible Light 15h 15m
Length of Day
14h 08m
Waxing Gibbous, 85% of the Moon is Illuminated
Aug 17
Waxing Gibbous
Aug 20
Full
Aug 28
Last Quarter
Sep 5
New
Sep 12
First Quarter

Hourly Weather History & Observations

Time (PDT) Temp. Dew Point Humidity Pressure Visibility Wind Dir Wind Speed Gust Speed Precip Events Conditions
12:53 AM 69.1 °F 53.1 °F 57% 30.04 in 10.0 mi South 3.5 mph - N/A   Mostly Cloudy
1:53 AM 68.0 °F 54.0 °F 61% 30.04 in 10.0 mi Calm Calm - N/A   Overcast
2:53 AM 66.9 °F 54.0 °F 63% 30.03 in 10.0 mi SSE 5.8 mph - N/A   Partly Cloudy
3:53 AM 64.0 °F 55.9 °F 75% 30.04 in 10.0 mi ESE 3.5 mph - N/A   Overcast
4:53 AM 64.9 °F 55.9 °F 73% 30.04 in 10.0 mi ESE 3.5 mph - N/A   Overcast
5:53 AM 64.9 °F 55.9 °F 73% 30.05 in 10.0 mi ESE 3.5 mph - N/A   Overcast
6:53 AM 64.9 °F 55.9 °F 73% 30.06 in 10.0 mi SE 4.6 mph - N/A   Scattered Clouds
7:53 AM 66.9 °F 54.0 °F 63% 30.07 in 10.0 mi SSE 8.1 mph - N/A   Scattered Clouds
8:53 AM 68.0 °F 55.0 °F 63% 30.08 in 10.0 mi SSE 6.9 mph - N/A   Clear
9:53 AM 69.1 °F 55.9 °F 63% 30.09 in 10.0 mi SSE 5.8 mph - N/A   Clear
10:53 AM 71.1 °F 57.9 °F 63% 30.09 in 10.0 mi SSE 6.9 mph - N/A   Clear
11:53 AM 73.0 °F 57.9 °F 59% 30.09 in 10.0 mi Variable 4.6 mph - N/A   Partly Cloudy
12:53 PM 75.0 °F 57.9 °F 55% 30.08 in 10.0 mi SSE 8.1 mph - N/A   Partly Cloudy
1:53 PM 77.0 °F 57.9 °F 52% 30.08 in 10.0 mi South 8.1 mph - N/A   Clear
2:53 PM 75.9 °F 57.9 °F 54% 30.07 in 10.0 mi SSW 8.1 mph - N/A   Scattered Clouds
3:53 PM 78.1 °F 57.0 °F 48% 30.06 in 10.0 mi SW 5.8 mph 16.1 mph N/A   Clear
4:53 PM 77.0 °F 57.0 °F 50% 30.05 in 10.0 mi SSW 3.5 mph - N/A   Clear
5:53 PM 77.0 °F 57.9 °F 52% 30.04 in 10.0 mi SW 5.8 mph - N/A   Clear
6:53 PM 75.9 °F 57.0 °F 52% 30.04 in 10.0 mi Variable 4.6 mph - N/A   Clear
7:53 PM 73.9 °F 57.0 °F 55% 30.04 in 10.0 mi SW 5.8 mph - N/A   Clear
8:53 PM 72.0 °F 57.0 °F 59% 30.06 in 10.0 mi SSW 4.6 mph - N/A   Clear
9:53 PM 69.1 °F 57.0 °F 65% 30.08 in 10.0 mi NW 4.6 mph - N/A   Clear
10:53 PM 66.9 °F 57.0 °F 70% 30.09 in 10.0 mi Calm Calm - N/A   Scattered Clouds
11:53 PM 66.9 °F 57.9 °F 73% 30.09 in 10.0 mi Calm Calm - N/A   Overcast